| time (UTC) | temp F | wind direction | speed MPH | gust MPH | rain 1hr in | rain 24hr in | rain mn in | humidity % | barometer mb |
| 20260504205015 | 71 | 222 | 0.0 | 10.0 | 0.00 | 0.00 | 0.00 | 33 | 1003.5 |
| 20260504204515 | 71 | 286 | 0.0 | 13.0 | 0.00 | 0.00 | 0.00 | 33 | 1003.5 |
| 20260504204015 | 71 | 286 | 2.0 | 17.0 | 0.00 | 0.00 | 0.00 | 33 | 1003.5 |
| 20260504203515 | 71 | 286 | 3.0 | 17.0 | 0.00 | 0.00 | 0.00 | 34 | 1003.5 |
| 20260504203015 | 71 | 247 | 3.0 | 17.0 | 0.00 | 0.00 | 0.00 | 33 | 1003.4 |
| 20260504202515 | 71 | 231 | 0.0 | 10.0 | 0.00 | 0.00 | 0.00 | 33 | 1003.5 |
| 20260504202015 | 71 | 0.0 | 0.0 | 0.00 | 0.00 | 0.00 | 33 | 1003.5 | |
| 20260504201535 | 71 | 0.0 | 0.0 | 0.00 | 0.00 | 0.00 | 33 | 1003.5 | |
| 20260504201015 | 72 | 0.0 | 0.0 | 0.00 | 0.00 | 0.00 | 32 | 1003.6 | |
| 20260504200515 | 71 | 0.0 | 0.0 | 0.00 | 0.00 | 0.00 | 34 | 1003.5 | |
| 20260504200015 | 71 | 0.0 | 1.0 | 0.00 | 0.00 | 0.00 | 34 | 1003.5 | |
| 20260504195515 | 71 | 267 | 0.0 | 1.0 | 0.00 | 0.00 | 0.00 | 32 | 1003.5 |
| 20260504195014 | 71 | 0.0 | 6.0 | 0.00 | 0.00 | 0.00 | 32 | 1003.6 | |
| 20260504194535 | 72 | 233 | 0.0 | 13.0 | 0.00 | 0.00 | 0.00 | 31 | 1003.7 |
| 20260504194035 | 72 | 236 | 2.0 | 13.0 | 0.00 | 0.00 | 0.00 | 31 | 1003.6 |
| 20260504193514 | 72 | 51 | 0.0 | 13.0 | 0.00 | 0.00 | 0.00 | 31 | 1003.6 |
| 20260504193017 | 73 | 196 | 1.0 | 13.0 | 0.00 | 0.00 | 0.00 | 31 | 1003.6 |
| 20260504192537 | 72 | 239 | 2.0 | 10.0 | 0.00 | 0.00 | 0.00 | 32 | 1003.6 |
| 20260504192016 | 72 | 316 | 0.0 | 19.0 | 0.00 | 0.00 | 0.00 | 31 | 1003.6 |
| 20260504191516 | 72 | 291 | 2.0 | 19.0 | 0.00 | 0.00 | 0.00 | 32 | 1003.7 |
| 20260504191017 | 72 | 190 | 0.0 | 3.0 | 0.00 | 0.00 | 0.00 | 31 | 1003.8 |
| 20260504190517 | 72 | 219 | 0.0 | 4.0 | 0.00 | 0.00 | 0.00 | 31 | 1003.8 |
| 20260504190016 | 72 | 218 | 0.0 | 16.0 | 0.00 | 0.00 | 0.00 | 31 | 1003.8 |
| 20260504185517 | 72 | 266 | 2.0 | 16.0 | 0.00 | 0.00 | 0.00 | 32 | 1003.9 |
| 20260504185016 | 72 | 207 | 0.0 | 4.0 | 0.00 | 0.00 | 0.00 | 32 | 1003.9 |
| 20260504184516 | 72 | 266 | 0.0 | 11.0 | 0.00 | 0.00 | 0.00 | 33 | 1004.0 |
| 20260504184016 | 71 | 231 | 3.0 | 11.0 | 0.00 | 0.00 | 0.00 | 32 | 1004.0 |
| 20260504183517 | 71 | 198 | 0.0 | 3.0 | 0.00 | 0.00 | 0.00 | 32 | 1004.1 |
| 20260504183016 | 71 | 0.0 | 0.0 | 0.00 | 0.00 | 0.00 | 32 | 1004.3 | |
| 20260504182516 | 71 | 0.0 | 0.0 | 0.00 | 0.00 | 0.00 | 32 | 1004.1 | |
| 20260504182017 | 71 | 0.0 | 1.0 | 0.00 | 0.00 | 0.00 | 31 | 1004.3 | |
| 20260504181516 | 71 | 264 | 0.0 | 1.0 | 0.00 | 0.00 | 0.00 | 32 | 1004.3 |
| 20260504181016 | 71 | 0.0 | 0.0 | 0.00 | 0.00 | 0.00 | 31 | 1004.3 | |
| 20260504180516 | 71 | 0.0 | 12.0 | 0.00 | 0.00 | 0.00 | 32 | 1004.3 | |
| 20260504180016 | 70 | 275 | 2.0 | 12.0 | 0.00 | 0.00 | 0.00 | 34 | 1004.3 |
| 20260504175516 | 70 | 0.0 | 1.0 | 0.00 | 0.00 | 0.00 | 32 | 1004.2 | |
| 20260504175016 | 70 | 169 | 0.0 | 1.0 | 0.00 | 0.00 | 0.00 | 32 | 1004.2 |
| 20260504174557 | 70 | 153 | 0.0 | 1.0 | 0.00 | 0.00 | 0.00 | 31 | 1004.4 |
| 20260504174016 | 70 | 277 | 0.0 | 1.0 | 0.00 | 0.00 | 0.00 | 32 | 1004.4 |
| 20260504173536 | 69 | 190 | 0.0 | 1.0 | 0.00 | 0.00 | 0.00 | 33 | 1004.5 |
| 20260504173016 | 69 | 345 | 0.0 | 7.0 | 0.00 | 0.00 | 0.00 | 32 | 1004.5 |
| 20260504172516 | 69 | 191 | 0.0 | 9.0 | 0.00 | 0.00 | 0.00 | 33 | 1004.5 |
| 20260504172016 | 69 | 204 | 0.0 | 9.0 | 0.00 | 0.00 | 0.00 | 33 | 1004.6 |
| 20260504171536 | 69 | 0.0 | 0.0 | 0.00 | 0.00 | 0.00 | 33 | 1004.5 | |
| 20260504171016 | 69 | 0.0 | 1.0 | 0.00 | 0.00 | 0.00 | 33 | 1004.7 | |
| 20260504170516 | 69 | 249 | 0.0 | 1.0 | 0.00 | 0.00 | 0.00 | 34 | 1004.8 |
| 20260504151016 | 65 | 213 | 0.0 | 10.0 | 0.00 | 0.00 | 0.00 | 39 | 1005.9 |
| 20260504150516 | 65 | 213 | 1.0 | 10.0 | 0.00 | 0.00 | 0.00 | 39 | 1005.9 |
| 20260504141016 | 62 | 0.0 | 2.0 | 0.00 | 0.00 | 0.00 | 43 | 1006.3 | |
| 20260504140516 | 62 | 349 | 0.0 | 2.0 | 0.00 | 0.00 | 0.00 | 44 | 1006.4 |
| 20260504130516 | 56 | 0.0 | 1.0 | 0.00 | 0.00 | 0.00 | 52 | 1007.2 | |
| 20260504110515 | 43 | 0.0 | 0.0 | 0.00 | 0.00 | 0.00 | 79 | 1007.6 | |
| 20260504081535 | 41 | 0.0 | 0.0 | 0.00 | 0.00 | 0.00 | 84 | 1007.6 | |
| 20260504081015 | 41 | 0.0 | 0.0 | 0.00 | 0.00 | 0.00 | 84 | 1007.6 | |
| 20260504080515 | 41 | 0.0 | 0.0 | 0.00 | 0.00 | 0.00 | 84 | 1007.6 | |
| 20260504050517 | 36 | 0.0 | 0.0 | 0.00 | 0.00 | 0.00 | 84 | 1007.5 | |
| 20260504050016 | 35 | 0.0 | 0.0 | 0.00 | 0.00 | 0.00 | 85 | 1007.5 | |
| 20260504045536 | 35 | 0.0 | 0.0 | 0.00 | 0.00 | 0.00 | 86 | 1007.5 | |
| 20260504045037 | 34 | 0.0 | 0.0 | 0.00 | 0.00 | 0.00 | 87 | 1007.5 | |
| 20260504044516 | 34 | 0.0 | 0.0 | 0.00 | 0.00 | 0.00 | 87 | 1007.5 | |
| 20260504044016 | 34 | 0.0 | 0.0 | 0.00 | 0.00 | 0.00 | 87 | 1007.6 | |
| 20260504043517 | 34 | 0.0 | 0.0 | 0.00 | 0.00 | 0.00 | 87 | 1007.6 | |
| 20260504043017 | 34 | 0.0 | 0.0 | 0.00 | 0.00 | 0.00 | 87 | 1007.5 | |
| 20260504042516 | 34 | 0.0 | 0.0 | 0.00 | 0.00 | 0.00 | 87 | 1007.5 | |
| 20260504042037 | 34 | 0.0 | 0.0 | 0.00 | 0.00 | 0.00 | 86 | 1007.5 | |
| 20260504041517 | 34 | 0.0 | 0.0 | 0.00 | 0.00 | 0.00 | 86 | 1007.4 | |
| 20260504041016 | 34 | 0.0 | 0.0 | 0.00 | 0.00 | 0.00 | 86 | 1007.4 | |
| 20260504040536 | 34 | 0.0 | 0.0 | 0.00 | 0.00 | 0.00 | 86 | 1007.3 | |
| 20260504040016 | 34 | 0.0 | 0.0 | 0.00 | 0.00 | 0.00 | 85 | 1007.4 | |
| 20260504035536 | 35 | 0.0 | 0.0 | 0.00 | 0.00 | 0.00 | 85 | 1007.3 | |
| 20260504035016 | 35 | 0.0 | 0.0 | 0.00 | 0.00 | 0.00 | 85 | 1007.3 | |
| 20260504034516 | 35 | 0.0 | 0.0 | 0.00 | 0.00 | 0.00 | 85 | 1007.2 | |
| 20260504034016 | 35 | 0.0 | 0.0 | 0.00 | 0.00 | 0.00 | 85 | 1007.2 | |
| 20260504033516 | 35 | 0.0 | 0.0 | 0.00 | 0.00 | 0.00 | 85 | 1007.2 | |
| 20260504033016 | 35 | 0.0 | 0.0 | 0.00 | 0.00 | 0.00 | 84 | 1007.2 | |
| 20260504032556 | 35 | 0.0 | 0.0 | 0.00 | 0.00 | 0.00 | 84 | 1007.2 | |
| 20260504032036 | 35 | 0.0 | 0.0 | 0.00 | 0.00 | 0.00 | 83 | 1007.1 | |
| 20260504031516 | 36 | 0.0 | 0.0 | 0.00 | 0.00 | 0.00 | 83 | 1007.1 | |
| 20260504031016 | 36 | 0.0 | 0.0 | 0.00 | 0.00 | 0.00 | 82 | 1007.1 | |
| 20260504030516 | 36 | 0.0 | 0.0 | 0.00 | 0.00 | 0.00 | 82 | 1007.0 | |
| 20260504030016 | 36 | 0.0 | 0.0 | 0.00 | 0.00 | 0.00 | 82 | 1007.1 | |
| 20260504025516 | 36 | 0.0 | 0.0 | 0.00 | 0.00 | 0.00 | 81 | 1007.1 | |
| 20260504025016 | 36 | 0.0 | 0.0 | 0.00 | 0.00 | 0.00 | 81 | 1007.0 | |
| 20260504024516 | 37 | 0.0 | 0.0 | 0.00 | 0.00 | 0.00 | 81 | 1007.1 | |
| 20260504024016 | 37 | 0.0 | 0.0 | 0.00 | 0.00 | 0.00 | 80 | 1007.0 | |
| 20260504023516 | 37 | 0.0 | 0.0 | 0.00 | 0.00 | 0.00 | 80 | 1007.0 | |
| 20260504023016 | 37 | 0.0 | 0.0 | 0.00 | 0.00 | 0.00 | 80 | 1007.0 | |
| 20260504022516 | 37 | 0.0 | 0.0 | 0.00 | 0.00 | 0.00 | 80 | 1007.0 | |
| 20260504022016 | 37 | 0.0 | 0.0 | 0.00 | 0.00 | 0.00 | 79 | 1007.0 | |
| 20260504021536 | 38 | 0.0 | 0.0 | 0.00 | 0.00 | 0.00 | 78 | 1007.0 | |
| 20260504021016 | 38 | 0.0 | 0.0 | 0.00 | 0.00 | 0.00 | 77 | 1007.0 | |
| 20260504020516 | 38 | 0.0 | 0.0 | 0.00 | 0.00 | 0.00 | 77 | 1007.0 | |
| 20260504020016 | 38 | 0.0 | 0.0 | 0.00 | 0.00 | 0.00 | 76 | 1006.9 | |
| 20260504015516 | 38 | 0.0 | 0.0 | 0.00 | 0.00 | 0.00 | 75 | 1006.9 | |
| 20260504015016 | 39 | 0.0 | 0.0 | 0.00 | 0.00 | 0.00 | 74 | 1006.9 | |
| 20260504014516 | 39 | 0.0 | 0.0 | 0.00 | 0.00 | 0.00 | 73 | 1006.8 | |
| 20260504014016 | 39 | 0.0 | 0.0 | 0.00 | 0.00 | 0.00 | 73 | 1006.8 | |
| 20260504013516 | 40 | 0.0 | 0.0 | 0.00 | 0.00 | 0.00 | 73 | 1006.8 | |
| 20260504013036 | 40 | 0.0 | 0.0 | 0.00 | 0.00 | 0.00 | 71 | 1006.7 | |
| 20260504012516 | 40 | 0.0 | 0.0 | 0.00 | 0.00 | 0.00 | 71 | 1006.7 | |
| 20260504012016 | 41 | 0.0 | 0.0 | 0.00 | 0.00 | 0.00 | 70 | 1006.6 | |
| 20260504011516 | 41 | 0.0 | 0.0 | 0.00 | 0.00 | 0.00 | 68 | 1006.6 | |
| 20260504011016 | 41 | 0.0 | 0.0 | 0.00 | 0.00 | 0.00 | 67 | 1006.5 | |
| 20260504010516 | 42 | 0.0 | 0.0 | 0.00 | 0.00 | 0.00 | 66 | 1006.4 | |
| 20260504010016 | 42 | 0.0 | 0.0 | 0.00 | 0.00 | 0.00 | 65 | 1006.3 | |
| 20260504005516 | 43 | 0.0 | 0.0 | 0.00 | 0.00 | 0.00 | 65 | 1006.3 | |
| 20260504005016 | 43 | 0.0 | 0.0 | 0.00 | 0.00 | 0.00 | 64 | 1006.2 | |
| 20260504004515 | 44 | 0.0 | 0.0 | 0.00 | 0.00 | 0.00 | 63 | 1006.2 | |
| 20260504004056 | 45 | 0.0 | 0.0 | 0.00 | 0.00 | 0.00 | 62 | 1006.1 | |
| 20260504003516 | 45 | 0.0 | 0.0 | 0.00 | 0.00 | 0.00 | 60 | 1006.1 | |
| 20260504003016 | 46 | 0.0 | 0.0 | 0.00 | 0.00 | 0.00 | 58 | 1006.1 | |
| 20260504002515 | 46 | 0.0 | 0.0 | 0.00 | 0.00 | 0.00 | 58 | 1006.0 | |
| 20260504002016 | 46 | 0.0 | 0.0 | 0.00 | 0.00 | 0.00 | 56 | 1005.9 | |
| 20260504001516 | 47 | 0.0 | 0.0 | 0.00 | 0.00 | 0.00 | 54 | 1005.8 | |
| 20260504001016 | 47 | 0.0 | 0.0 | 0.00 | 0.00 | 0.00 | 54 | 1005.8 | |
| 20260504000516 | 48 | 0.0 | 0.0 | 0.00 | 0.00 | 0.00 | 52 | 1005.7 | |
| 20260504000016 | 48 | 0.0 | 0.0 | 0.00 | 0.00 | 0.00 | 50 | 1005.7 | |
| 20260503235516 | 49 | 0.0 | 0.0 | 0.00 | 0.00 | 0.00 | 50 | 1005.7 | |
| 20260503235015 | 49 | 0.0 | 0.0 | 0.00 | 0.00 | 0.00 | 49 | 1005.6 | |
| 20260503234515 | 49 | 0.0 | 0.0 | 0.00 | 0.00 | 0.00 | 48 | 1005.6 | |
| 20260503234015 | 50 | 0.0 | 0.0 | 0.00 | 0.00 | 0.00 | 49 | 1005.6 | |
| 20260503233516 | 50 | 0.0 | 0.0 | 0.00 | 0.00 | 0.00 | 47 | 1005.5 | |
| 20260503233016 | 50 | 0.0 | 0.0 | 0.00 | 0.00 | 0.00 | 47 | 1005.5 | |
| 20260503232515 | 50 | 0.0 | 0.0 | 0.00 | 0.00 | 0.00 | 46 | 1005.5 | |
| 20260503232016 | 50 | 0.0 | 0.0 | 0.00 | 0.00 | 0.00 | 46 | 1005.4 | |
| 20260503231515 | 50 | 0.0 | 0.0 | 0.00 | 0.00 | 0.00 | 46 | 1005.3 | |
| 20260503231016 | 51 | 0.0 | 5.0 | 0.00 | 0.00 | 0.00 | 47 | 1005.3 | |
| 20260503230535 | 51 | 300 | 0.0 | 5.0 | 0.00 | 0.00 | 0.00 | 45 | 1005.2 |
| 20260503230015 | 51 | 0.0 | 0.0 | 0.00 | 0.00 | 0.00 | 44 | 1005.1 | |
| 20260503225515 | 51 | 0.0 | 0.0 | 0.00 | 0.00 | 0.00 | 44 | 1005.2 | |
| 20260503225015 | 51 | 0.0 | 0.0 | 0.00 | 0.00 | 0.00 | 44 | 1005.1 | |
| 20260503224515 | 51 | 0.0 | 0.0 | 0.00 | 0.00 | 0.00 | 43 | 1005.1 | |
| 20260503224015 | 51 | 0.0 | 1.0 | 0.00 | 0.00 | 0.00 | 43 | 1005.0 | |
| 20260503223515 | 51 | 283 | 0.0 | 1.0 | 0.00 | 0.00 | 0.00 | 43 | 1005.0 |
| 20260503223036 | 51 | 0.0 | 0.0 | 0.00 | 0.00 | 0.00 | 43 | 1005.0 | |
| 20260503222515 | 52 | 0.0 | 0.0 | 0.00 | 0.00 | 0.00 | 42 | 1004.9 | |
| 20260503222016 | 52 | 0.0 | 0.0 | 0.00 | 0.00 | 0.00 | 43 | 1004.8 | |
| 20260503221515 | 52 | 0.0 | 1.0 | 0.00 | 0.00 | 0.00 | 43 | 1004.7 | |
| 20260503221015 | 52 | 271 | 0.0 | 1.0 | 0.00 | 0.00 | 0.00 | 43 | 1004.8 |
| 20260503220615 | 52 | 0.0 | 11.0 | 0.00 | 0.00 | 0.00 | 42 | 1004.8 | |
| 20260503220015 | 52 | 272 | 0.0 | 11.0 | 0.00 | 0.00 | 0.00 | 41 | 1004.7 |
| 20260503215515 | 52 | 261 | 0.0 | 6.0 | 0.00 | 0.00 | 0.00 | 41 | 1004.6 |
| 20260503215015 | 52 | 303 | 0.0 | 6.0 | 0.00 | 0.00 | 0.00 | 42 | 1004.6 |
| 20260503214515 | 52 | 304 | 0.0 | 13.0 | 0.00 | 0.00 | 0.00 | 41 | 1004.5 |
| 20260503214015 | 52 | 285 | 1.0 | 13.0 | 0.00 | 0.00 | 0.00 | 42 | 1004.5 |
| 20260503213515 | 52 | 280 | 1.0 | 10.0 | 0.00 | 0.00 | 0.00 | 43 | 1004.4 |
| 20260503213015 | 52 | 0.0 | 13.0 | 0.00 | 0.00 | 0.00 | 42 | 1004.4 | |
| 20260503212515 | 52 | 282 | 1.0 | 13.0 | 0.00 | 0.00 | 0.00 | 42 | 1004.4 |
| 20260503212015 | 53 | 309 | 0.0 | 1.0 | 0.00 | 0.00 | 0.00 | 43 | 1004.3 |
| 20260503211515 | 52 | 0.0 | 0.0 | 0.00 | 0.00 | 0.00 | 45 | 1004.2 | |
| 20260503211015 | 52 | 0.0 | 0.0 | 0.00 | 0.00 | 0.00 | 44 | 1004.2 | |
| 20260503210515 | 52 | 0.0 | 0.0 | 0.00 | 0.00 | 0.00 | 44 | 1004.1 | |
| 20260503210015 | 52 | 0.0 | 21.0 | 0.00 | 0.01 | 0.00 | 45 | 1004.0 | |
| 20260503205516 | 52 | 283 | 2.0 | 21.0 | 0.00 | 0.01 | 0.00 | 42 | 1004.0 |